WZZ39GE EPWA-LEBL

Flight info

Callsign WZZ39GE
Flight time N/A
Altitude 36000
Route EVINA N744 NAVUR DCT BAVOK DCT NAVTI DCT LIMRA DCT OBEDI DCT DETSA/N0441F370 DCT NESTI DCT VOG DCT GEKBA DCT VAMTU DCT KOLON DCT GANGU DCT PADKO DCT DIVKO DCT NILDU DCT BISBA
Aircraft A321/M-SDE1E2E3FGIJ1J4RWXY/LB1

Departure

Time N/A
Airport Warsaw Chopin Airport (EPWA)

Arrival

Time 2026-05-01 08:40
Airport Josep Tarradellas Barcelona-El Prat Airport (LEBL)
Time Latitude Longitude Altitude Speed Heading
2026-05-01 07:23 45.46862 9.83590 37427 ft 474 kts 233°
2026-05-01 07:23 45.42696 9.76342 37322 ft 473 kts 233°
2026-05-01 07:24 45.40612 9.72723 37290 ft 472 kts 233°
2026-05-01 07:24 45.36459 9.65505 37319 ft 471 kts 233°
2026-05-01 07:25 45.32309 9.58321 37341 ft 470 kts 233°
2026-05-01 07:25 45.28163 9.51158 37363 ft 468 kts 233°
2026-05-01 07:26 45.24028 9.44027 37384 ft 468 kts 233°
2026-05-01 07:26 45.19878 9.36913 37411 ft 468 kts 233°
2026-05-01 07:27 45.15762 9.29874 37401 ft 467 kts 233°
2026-05-01 07:27 45.11624 9.22791 37388 ft 466 kts 233°
2026-05-01 07:28 45.07497 9.15739 37410 ft 464 kts 233°
2026-05-01 07:28 45.03368 9.08727 37409 ft 463 kts 233°
2026-05-01 07:29 44.99249 9.01748 37413 ft 462 kts 233°
2026-05-01 07:29 44.95137 8.94785 37403 ft 461 kts 233°
2026-05-01 07:30 44.91104 8.87773 37404 ft 460 kts 234°
2026-05-01 07:30 44.87115 8.80728 37401 ft 459 kts 234°
2026-05-01 07:31 44.83791 8.74888 37381 ft 459 kts 234°
2026-05-01 07:32 44.73733 8.57478 37392 ft 458 kts 234°
2026-05-01 07:33 44.67700 8.47075 37384 ft 457 kts 234°
2026-05-01 07:33 44.61664 8.36688 37384 ft 457 kts 234°
2026-05-01 07:34 44.55647 8.26398 37385 ft 456 kts 233°
2026-05-01 07:35 44.51622 8.19538 37386 ft 455 kts 233°
2026-05-01 07:35 44.47610 8.12693 37386 ft 455 kts 233°
2026-05-01 07:36 44.43597 8.05861 37385 ft 454 kts 233°
2026-05-01 07:36 44.39575 7.99046 37386 ft 454 kts 233°
2026-05-01 07:37 44.33548 7.88864 37389 ft 452 kts 233°
2026-05-01 07:37 44.29536 7.82118 37380 ft 451 kts 233°
2026-05-01 07:38 44.25266 7.75720 37361 ft 453 kts 224°
2026-05-01 07:39 44.18189 7.67009 37366 ft 452 kts 224°
2026-05-01 07:39 44.11576 7.57770 37351 ft 447 kts 232°
2026-05-01 07:40 44.07509 7.51233 37363 ft 446 kts 232°
2026-05-01 07:40 44.03434 7.44724 37356 ft 446 kts 232°
2026-05-01 07:41 43.99360 7.38246 37352 ft 445 kts 232°
2026-05-01 07:42 43.93272 7.28558 37341 ft 444 kts 232°
2026-05-01 07:42 43.89210 7.22122 37340 ft 443 kts 232°
2026-05-01 07:43 43.85140 7.15703 37340 ft 443 kts 232°
2026-05-01 07:43 43.79033 7.06088 37352 ft 443 kts 233°
2026-05-01 07:44 43.71513 6.92850 37336 ft 433 kts 248°
2026-05-01 07:45 43.69231 6.85181 37333 ft 432 kts 251°
2026-05-01 07:45 43.66969 6.77513 37335 ft 431 kts 251°
2026-05-01 07:46 43.64696 6.69868 37336 ft 430 kts 251°
2026-05-01 07:47 43.61297 6.58433 37334 ft 428 kts 251°
2026-05-01 07:47 43.59035 6.50835 37321 ft 428 kts 251°
2026-05-01 07:48 43.55634 6.39460 37321 ft 428 kts 251°
2026-05-01 07:48 43.53358 6.31894 37320 ft 427 kts 251°
2026-05-01 07:49 43.49956 6.20606 37319 ft 427 kts 251°
2026-05-01 07:50 43.47678 6.13046 37317 ft 427 kts 251°
2026-05-01 07:50 43.44251 6.01728 37310 ft 427 kts 250°
2026-05-01 07:51 43.41949 5.94192 37311 ft 427 kts 250°
2026-05-01 07:52 43.38503 5.82904 37307 ft 427 kts 250°
2026-05-01 07:52 43.36198 5.75384 37300 ft 427 kts 250°
2026-05-01 07:53 43.32733 5.64119 37292 ft 427 kts 250°
2026-05-01 07:53 43.30412 5.56603 37293 ft 427 kts 249°
2026-05-01 07:55 43.24574 5.37834 37290 ft 428 kts 249°
2026-05-01 07:56 43.18704 5.19046 37278 ft 430 kts 249°
2026-05-01 07:57 43.15154 5.07756 37290 ft 430 kts 249°
2026-05-01 07:58 43.10400 4.92716 37284 ft 430 kts 249°
2026-05-01 07:59 43.05223 4.77962 37296 ft 433 kts 235°
2026-05-01 07:59 43.00975 4.72084 37293 ft 437 kts 224°
2026-05-01 08:00 42.91870 4.61080 37286 ft 437 kts 224°
2026-05-01 08:01 42.82757 4.50107 37296 ft 437 kts 223°
2026-05-01 08:02 42.75949 4.41953 37292 ft 436 kts 223°
2026-05-01 08:03 42.69111 4.33803 37292 ft 436 kts 224°
2026-05-01 08:03 42.62278 4.25656 37287 ft 436 kts 225°
2026-05-01 08:04 42.53154 4.14794 37086 ft 443 kts 223°
2026-05-01 08:05 42.48519 4.09303 36006 ft 441 kts 223°
2026-05-01 08:05 42.46205 4.06575 35399 ft 441 kts 223°
2026-05-01 08:05 42.43892 4.03854 34849 ft 440 kts 223°
2026-05-01 08:06 42.39297 3.98448 33812 ft 435 kts 223°
2026-05-01 08:06 42.34772 3.93131 32854 ft 427 kts 223°
2026-05-01 08:07 42.30334 3.87913 31897 ft 419 kts 224°
2026-05-01 08:07 42.25967 3.82802 30952 ft 412 kts 224°
2026-05-01 08:08 42.23810 3.80277 30485 ft 409 kts 224°
2026-05-01 08:08 42.19554 3.75295 29512 ft 400 kts 224°
2026-05-01 08:09 42.15390 3.70433 28624 ft 391 kts 223°
2026-05-01 08:09 42.13343 3.68049 28189 ft 387 kts 223°
2026-05-01 08:09 42.11312 3.65688 27775 ft 384 kts 223°
2026-05-01 08:10 42.07978 3.60325 27028 ft 371 kts 243°
2026-05-01 08:10 42.05806 3.53969 26532 ft 376 kts 248°
2026-05-01 08:11 42.03680 3.47561 25988 ft 374 kts 247°
2026-05-01 08:11 42.00947 3.41650 25466 ft 376 kts 227°
2026-05-01 08:12 41.96548 3.37903 24917 ft 380 kts 200°
2026-05-01 08:12 41.93987 3.36983 24647 ft 381 kts 196°
2026-05-01 08:12 41.88862 3.35279 24112 ft 379 kts 196°
2026-05-01 08:13 41.86306 3.34419 23845 ft 378 kts 196°
2026-05-01 08:13 41.83764 3.33560 23547 ft 376 kts 196°
2026-05-01 08:13 41.78711 3.31853 23013 ft 373 kts 196°
2026-05-01 08:14 41.76197 3.31006 22744 ft 371 kts 197°
2026-05-01 08:14 41.73697 3.30168 22486 ft 370 kts 195°
2026-05-01 08:14 41.71205 3.29338 22223 ft 368 kts 196°
2026-05-01 08:14 41.68729 3.28515 21966 ft 366 kts 195°
2026-05-01 08:15 41.66259 3.27696 21704 ft 365 kts 197°
2026-05-01 08:15 41.61356 3.26074 21190 ft 362 kts 196°
2026-05-01 08:15 41.58920 3.25264 20935 ft 360 kts 195°
2026-05-01 08:16 41.56494 3.24455 20679 ft 359 kts 196°
2026-05-01 08:16 41.54077 3.23651 20420 ft 357 kts 196°
2026-05-01 08:16 41.51667 3.22847 20164 ft 356 kts 196°
2026-05-01 08:16 41.49272 3.22046 19917 ft 355 kts 195°
2026-05-01 08:17 41.46873 3.21246 19665 ft 354 kts 195°
2026-05-01 08:17 41.44486 3.20453 19416 ft 353 kts 195°
2026-05-01 08:17 41.42103 3.19663 19167 ft 352 kts 195°
2026-05-01 08:17 41.39728 3.18878 18920 ft 351 kts 194°
2026-05-01 08:18 41.37364 3.18100 18670 ft 349 kts 194°
2026-05-01 08:18 41.32695 3.16567 18153 ft 347 kts 194°
2026-05-01 08:19 41.28030 3.15021 17659 ft 345 kts 194°
2026-05-01 08:19 41.25703 3.14249 17419 ft 344 kts 194°
2026-05-01 08:19 41.23388 3.13487 17172 ft 342 kts 195°
2026-05-01 08:19 41.21081 3.12733 16926 ft 341 kts 195°
2026-05-01 08:20 41.18781 3.11983 16691 ft 340 kts 194°
2026-05-01 08:20 41.16491 3.11234 16449 ft 338 kts 194°
2026-05-01 08:20 41.14212 3.10484 16210 ft 337 kts 195°
2026-05-01 08:20 41.12045 3.09374 15969 ft 334 kts 211°
2026-05-01 08:21 41.10211 3.07514 15737 ft 332 kts 227°
2026-05-01 08:21 41.08860 3.05059 15490 ft 329 kts 243°
2026-05-01 08:21 41.08283 3.03216 15345 ft 327 kts 254°
2026-05-01 08:21 41.07785 2.99264 15043 ft 326 kts 263°
2026-05-01 08:22 41.07598 2.97288 14888 ft 326 kts 263°
2026-05-01 08:22 41.07312 2.94318 14659 ft 325 kts 263°
2026-05-01 08:22 41.07020 2.91351 14428 ft 324 kts 263°
2026-05-01 08:22 41.06728 2.88398 14198 ft 323 kts 263°
2026-05-01 08:23 41.06436 2.85443 13790 ft 324 kts 262°
2026-05-01 08:23 41.06145 2.82500 13512 ft 321 kts 262°
2026-05-01 08:23 41.05855 2.79568 13289 ft 321 kts 262°
2026-05-01 08:23 41.05566 2.76636 13060 ft 321 kts 262°
2026-05-01 08:24 41.05277 2.73710 12835 ft 320 kts 262°
2026-05-01 08:24 41.04988 2.70789 12608 ft 320 kts 261°
2026-05-01 08:24 41.04697 2.67873 12369 ft 319 kts 262°
2026-05-01 08:24 41.04406 2.64964 12160 ft 318 kts 262°
2026-05-01 08:25 41.04118 2.62066 11927 ft 317 kts 262°
2026-05-01 08:25 41.03829 2.59170 11704 ft 318 kts 262°
2026-05-01 08:25 41.03537 2.56271 11481 ft 317 kts 261°
2026-05-01 08:25 41.03245 2.53376 11256 ft 317 kts 261°
2026-05-01 08:26 41.02955 2.50489 11036 ft 315 kts 261°
2026-05-01 08:26 41.02663 2.47612 10809 ft 315 kts 261°
2026-05-01 08:26 41.02368 2.44743 10589 ft 314 kts 261°
2026-05-01 08:26 41.02074 2.41880 10364 ft 315 kts 260°
2026-05-01 08:27 41.01783 2.39016 10144 ft 311 kts 261°
2026-05-01 08:27 41.01736 2.36182 9878 ft 307 kts 276°
2026-05-01 08:27 41.02260 2.33489 9685 ft 300 kts 292°
2026-05-01 08:27 41.03183 2.31006 9419 ft 302 kts 296°
2026-05-01 08:28 41.04126 2.28527 9117 ft 301 kts 296°
2026-05-01 08:28 41.05052 2.26073 8808 ft 296 kts 297°
2026-05-01 08:28 41.05970 2.23641 8489 ft 294 kts 297°
2026-05-01 08:28 41.06747 2.21153 8173 ft 293 kts 284°
2026-05-01 08:29 41.07049 2.18485 7883 ft 294 kts 269°
2026-05-01 08:29 41.06994 2.15780 7582 ft 292 kts 267°
2026-05-01 08:29 41.06933 2.13098 7260 ft 290 kts 267°
2026-05-01 08:29 41.06875 2.10428 6950 ft 290 kts 267°
2026-05-01 08:30 41.06817 2.07751 6654 ft 290 kts 267°
2026-05-01 08:30 41.06760 2.05082 6332 ft 290 kts 266°
2026-05-01 08:30 41.06703 2.02448 6020 ft 290 kts 266°
2026-05-01 08:30 41.06642 1.99806 5843 ft 282 kts 267°
2026-05-01 08:31 41.06584 1.97260 5706 ft 270 kts 266°
2026-05-01 08:31 41.06532 1.94843 5513 ft 256 kts 267°
2026-05-01 08:31 41.06518 1.92522 5191 ft 250 kts 275°
2026-05-01 08:31 41.06933 1.90311 4751 ft 247 kts 295°
2026-05-01 08:32 41.07839 1.88405 4377 ft 244 kts 314°
2026-05-01 08:32 41.09127 1.86962 4103 ft 242 kts 333°
2026-05-01 08:32 41.10629 1.86000 3834 ft 240 kts 341°
2026-05-01 08:32 41.12144 1.85097 3564 ft 237 kts 340°
2026-05-01 08:33 41.13643 1.84209 3477 ft 236 kts 343°
2026-05-01 08:33 41.15173 1.83666 3394 ft 219 kts 354°
2026-05-01 08:33 41.16642 1.83282 3279 ft 213 kts 354°
2026-05-01 08:33 41.18092 1.82905 3182 ft 212 kts 354°
2026-05-01 08:34 41.19511 1.82691 3081 ft 196 kts 12°
2026-05-01 08:34 41.20731 1.83233 3032 ft 179 kts 37°
2026-05-01 08:34 41.21593 1.84362 3035 ft 173 kts 59°
2026-05-01 08:34 41.22111 1.85782 3023 ft 167 kts 67°
2026-05-01 08:35 41.22575 1.87121 3012 ft 155 kts 68°
2026-05-01 08:35 41.23019 1.88406 2948 ft 151 kts 67°
2026-05-01 08:35 41.23454 1.89666 2807 ft 150 kts 66°
2026-05-01 08:35 41.23886 1.90919 2636 ft 149 kts 67°
2026-05-01 08:36 41.24311 1.92151 2445 ft 146 kts 67°
2026-05-01 08:36 41.24730 1.93366 2260 ft 143 kts 66°
2026-05-01 08:36 41.25144 1.94568 2072 ft 143 kts 66°
2026-05-01 08:36 41.25554 1.95758 1884 ft 141 kts 65°
2026-05-01 08:37 41.25963 1.96946 1689 ft 142 kts 66°
2026-05-01 08:37 41.26366 1.98117 1522 ft 141 kts 65°
2026-05-01 08:37 41.26772 1.99296 1326 ft 139 kts 65°
2026-05-01 08:37 41.27166 2.00441 1137 ft 130 kts 64°
2026-05-01 08:38 41.27536 2.01533 1002 ft 129 kts 64°
2026-05-01 08:38 41.27908 2.02610 792 ft 128 kts 64°
2026-05-01 08:38 41.28288 2.03688 650 ft 130 kts 67°
2026-05-01 08:38 41.28641 2.04771 427 ft 127 kts 64°
2026-05-01 08:39 41.29013 2.05820 258 ft 129 kts 64°
2026-05-01 08:39 41.29395 2.06916 106 ft 131 kts 67°
2026-05-01 08:39 41.29759 2.08014 23 ft 123 kts 63°
2026-05-01 08:39 41.30053 2.08857 20 ft 76 kts 65°
2026-05-01 08:40 41.30301 2.09447 17 ft 21 kts 31°
2026-05-01 08:40 41.30392 2.09529 19 ft 9 kts 28°
2026-05-01 08:40 41.30456 2.09523 18 ft 11 kts 337°
2026-05-01 08:41 41.30502 2.09473 19 ft 9 kts 291°
2026-05-01 08:41 41.30487 2.09400 19 ft 9 kts 245°
2026-05-01 08:41 41.30458 2.09318 19 ft 11 kts 246°
2026-05-01 08:41 41.30427 2.09224 22 ft 12 kts 246°
2026-05-01 08:42 41.30390 2.09117 19 ft 14 kts 245°
2026-05-01 08:42 41.30346 2.08989 18 ft 16 kts 246°
2026-05-01 08:42 41.30298 2.08849 18 ft 17 kts 245°
2026-05-01 08:42 41.30247 2.08699 20 ft 18 kts 245°
2026-05-01 08:43 41.30193 2.08541 21 ft 19 kts 245°
2026-05-01 08:43 41.30137 2.08377 22 ft 19 kts 245°
2026-05-01 08:43 41.30102 2.08274 19 ft 8 kts 247°
2026-05-01 08:43 41.30129 2.08213 18 ft 6 kts 329°
2026-05-01 08:44 41.30174 2.08184 20 ft 7 kts 335°
2026-05-01 08:44 41.30220 2.08151 19 ft 8 kts 326°
2026-05-01 08:44 41.30252 2.08106 20 ft 5 kts 309°
2026-05-01 08:44 41.30274 2.08070 21 ft 2 kts 309°
2026-05-01 08:45 41.30280 2.08060 21 ft 0 kts 309°